GFSNE_925_spd_003.txt.gz
Wind_Speed
11 10 10 11 12 13 12 12 11 9 10 15 11 10 11 14 17 17 15 18 21 19 20 20 24 25 25 25 28 32 33 32 34 34 37 37 35 34
10 11 11 11 12 13 13 13 13 14 11 17 16 18 17 16 16 16 18 23 21 22 21 23 28 28 27 28 29 30 34 36 35 36 36 38 38 38
11 11 12 12 11 11 11 14 15 14 16 23 20 17 19 20 17 17 19 20 20 22 27 28 30 32 33 32 30 31 32 35 37 37 37 38 39 40
12 10 11 10 10 11 12 14 16 17 18 20 25 22 20 21 21 21 21 20 21 23 26 29 29 35 36 36 33 32 33 34 37 39 38 38 40 41
12 12 13 11 13 13 13 14 15 17 16 19 22 23 22 20 22 23 22 23 22 23 27 27 31 33 36 38 37 36 35 36 37 40 41 40 40 43
16 15 16 14 14 13 14 14 16 17 17 17 21 23 23 21 20 22 24 24 26 26 28 30 31 33 35 38 39 40 37 37 39 41 43 42 41 43
16 16 18 17 17 16 14 17 15 17 17 19 22 22 22 22 22 23 25 26 28 28 30 31 31 37 38 38 39 38 39 36 37 42 43 44 42 42
17 17 19 20 20 19 19 19 19 19 21 22 24 23 23 23 23 23 25 27 21 27 27 37 34 38 40 40 40 40 41 41 37 36 44 45 44 42
20 21 20 16 19 16 17 19 20 22 23 21 19 19 21 24 24 26 26 27 28 32 33 38 37 41 42 42 42 43 44 45 43 41 39 44 46 45
18 20 17 18 13 15 15 16 17 16 15 13 15 18 19 22 22 24 28 27 29 30 29 33 40 45 44 45 43 44 45 44 44 40 41 41 45 45
27 18 14 13 14 16 15 15 15 14 12 15 18 21 23 25 21 19 23 22 23 30 33 36 44 45 43 42 41 41 42 44 44 42 42 41 42 44
26 15 13 11 13 13 12 10 12 11 11 16 18 18 17 18 19 14 18 18 22 26 35 36 39 35 19 32 35 32 31 38 41 40 40 39 41 38
17 9 6 9 8 9 9 6 7 10 13 14 17 16 16 16 15 15 18 19 24 30 41 40 37 35 25 21 27 29 27 28 28 34 39 38 39 38
13 6 4 5 8 10 7 9 9 11 12 14 14 15 16 17 18 20 22 23 27 32 42 42 34 35 28 17 13 20 22 22 25 26 31 36 36 37
4 4 7 10 11 7 7 8 9 9 11 12 13 14 16 18 19 21 24 24 27 34 37 40 37 36 21 18 12 16 13 16 25 22 26 31 37 38
3 4 8 8 5 4 5 6 7 8 10 11 12 14 16 18 19 20 23 25 26 29 37 34 36 32 18 20 18 19 21 6 20 22 25 27 31 32
4 3 3 3 5 6 6 7 7 7 9 10 12 14 16 18 20 21 21 23 21 24 30 38 42 32 11 10 11 16 12 2 11 15 18 19 28 35
3 5 5 6 7 6 5 5 5 6 8 11 13 14 16 17 19 22 20 20 21 23 27 33 36 32 16 1 21 24 20 3 11 12 14 13 15 30
3 4 5 7 5 4 3 3 6 8 9 10 12 13 15 16 18 20 19 20 23 23 23 27 27 28 9 9 10 19 22 17 6 15 15 14 10 22
4 5 6 5 3 2 2 4 7 8 9 9 10 12 13 15 17 18 18 18 20 21 22 21 25 27 15 11 5 18 28 18 9 7 13 15 11 12
5 5 4 3 2 2 4 5 7 7 7 8 9 11 12 14 16 18 18 18 17 15 18 21 25 22 23 20 11 18 29 19 20 5 9 17 11 11
4 5 4 2 2 3 4 5 5 5 5 6 8 10 12 13 15 17 18 18 17 17 17 20 21 23 18 15 12 16 24 33 22 31 18 12 4 4
5 4 3 3 2 3 4 3 3 3 4 6 8 9 12 14 15 16 17 16 15 17 22 18 17 19 20 17 17 20 27 29 26 28 38 37 23 14

GFSNE_925_spd_006.txt.gz
Wind_Speed
10 10 12 12 11 11 12 11 14 9 9 13 12 9 11 12 13 15 15 15 21 21 16 15 14 16 18 17 18 20 23 27 30 34 34 35 36 36
10 10 11 13 13 12 11 13 14 15 12 17 15 16 13 15 16 17 17 21 22 20 23 20 20 21 21 21 22 23 24 26 29 32 37 37 37 39
12 12 12 12 13 12 11 12 13 15 16 22 20 19 15 16 18 19 20 21 22 22 20 22 27 27 24 25 26 28 27 28 29 32 35 39 39 40
14 13 12 12 10 12 13 13 15 15 19 19 22 22 19 18 18 19 21 22 22 22 25 29 26 26 28 28 31 29 30 30 32 33 35 38 41 42
15 14 14 13 13 14 14 15 16 16 17 20 19 21 22 21 22 21 20 23 22 23 24 23 25 28 30 30 32 30 35 34 36 37 37 40 41 43
16 16 16 16 15 14 16 16 16 16 19 21 20 21 17 23 23 22 22 24 25 25 26 29 31 30 31 30 30 34 35 36 38 39 39 40 44 45
17 18 18 17 17 18 18 16 16 19 20 21 24 23 22 18 21 25 25 25 26 27 28 29 32 30 29 33 34 36 39 41 43 44 41 40 42 46
16 16 15 17 21 22 21 21 20 17 19 21 24 24 24 23 23 23 23 25 21 27 29 32 31 34 33 36 39 43 48 49 45 46 46 44 41 43
14 14 15 19 19 17 18 18 18 17 20 19 22 22 22 22 22 22 25 26 29 32 31 33 29 33 36 39 45 45 44 46 48 46 46 46 47 45
13 9 9 18 21 23 17 16 17 17 17 18 18 19 19 20 20 23 26 28 28 29 29 28 30 34 40 42 47 48 49 51 49 48 47 47 46 46
19 18 20 21 18 18 12 14 16 17 17 15 15 19 21 23 20 17 22 21 21 25 28 30 32 36 41 44 41 42 44 47 48 48 47 47 46 43
19 16 15 14 15 15 11 11 14 15 13 15 17 17 19 20 19 18 18 19 22 23 28 27 32 30 19 37 35 38 39 37 34 37 42 45 44 40
12 8 7 10 12 11 10 10 12 11 13 15 17 19 19 18 18 16 17 21 25 27 30 29 27 33 26 30 34 34 34 34 32 32 36 42 44 42
10 8 8 11 9 10 10 13 14 11 13 15 17 18 18 19 19 19 22 23 26 29 33 32 28 34 34 32 26 35 27 27 32 34 30 33 42 41
7 8 8 7 9 12 13 13 10 11 13 14 17 16 17 19 21 23 22 24 26 25 24 26 29 37 38 34 29 28 25 30 36 26 24 26 30 41
6 3 4 7 9 7 6 7 7 9 11 14 15 15 17 18 20 22 23 25 24 25 23 23 28 35 38 32 22 21 20 12 24 17 22 23 21 27
7 6 7 9 9 8 7 8 8 9 10 12 14 16 17 18 19 21 22 22 22 22 26 29 30 34 33 25 11 19 22 22 21 13 18 17 22 27
4 8 9 7 8 8 7 8 8 7 10 11 14 15 16 17 19 21 19 20 19 22 22 28 28 31 32 24 15 20 21 21 25 10 12 12 14 24
6 6 7 6 7 7 8 7 8 8 10 12 13 14 14 16 17 18 19 20 18 23 22 26 23 24 12 12 16 19 29 26 26 20 15 12 7 17
5 5 6 7 7 7 6 7 8 9 11 11 12 12 12 13 15 16 18 18 20 22 22 23 22 24 15 11 10 26 25 28 23 18 16 14 12 8
4 5 5 6 5 6 6 7 8 10 9 10 10 10 11 12 13 15 17 17 17 17 18 24 22 25 21 21 18 21 28 27 22 21 15 9 8 8
4 5 5 5 5 5 5 7 8 8 7 8 8 9 10 11 13 15 16 17 17 17 15 23 16 23 19 14 16 23 24 29 31 24 27 20 4 3
5 6 6 6 5 5 6 7 6 6 5 6 8 9 10 12 13 14 16 16 16 17 20 16 15 24 18 18 18 21 28 29 26 30 30 33 33 22

GFSNE_925_spd_009.txt.gz
Wind_Speed
9 10 10 9 8 8 7 6 4 4 6 15 10 11 7 10 7 9 15 16 18 19 23 20 18 19 18 19 19 19 19 20 21 23 26 28 32 34
11 10 10 10 9 10 8 12 11 11 8 14 14 13 12 13 16 13 15 18 22 21 22 23 19 19 22 25 24 23 23 22 23 24 26 27 30 33
13 11 11 11 11 11 10 11 11 13 14 16 20 19 16 18 20 18 19 20 23 25 22 19 20 26 28 25 25 25 25 24 22 25 26 27 29 32
16 16 15 14 14 13 10 13 12 12 15 15 19 18 18 20 17 17 21 21 22 22 23 28 32 31 26 25 28 29 28 26 26 27 26 28 30 32
16 17 15 15 13 14 12 13 14 15 13 18 18 19 21 23 26 21 22 24 24 29 31 32 31 28 27 30 33 33 31 30 30 29 31 30 30 33
18 17 16 16 16 15 16 16 18 17 19 17 18 19 19 23 26 17 19 25 27 25 25 25 29 30 33 34 36 35 32 33 33 34 32 34 40 42
17 16 16 18 19 18 16 18 19 18 21 20 20 20 21 20 20 23 24 23 22 22 24 26 28 27 27 30 32 33 31 30 33 35 39 43 48 49
18 18 19 18 15 16 18 17 22 26 22 20 20 20 21 20 21 20 21 24 18 23 25 27 27 30 32 34 35 33 33 32 42 53 52 50 50 51
19 18 19 20 18 15 15 15 18 24 26 22 19 21 20 18 20 20 21 22 25 26 26 29 27 28 29 34 33 31 40 44 49 56 57 56 56 54
20 20 19 19 17 15 16 21 21 21 20 20 22 21 19 18 17 20 23 25 27 27 22 23 26 29 30 31 33 37 49 51 50 53 51 50 49 50
23 20 17 18 20 23 22 20 19 20 18 22 22 19 20 21 20 18 19 20 21 21 21 26 27 27 28 31 36 37 44 51 51 50 48 47 48 46
24 20 21 24 22 19 17 13 14 16 17 17 13 17 21 23 23 26 23 21 21 21 23 21 26 28 23 32 32 39 43 46 44 47 46 44 39 39
16 18 16 19 17 16 14 10 13 15 14 15 18 21 19 19 19 15 12 16 21 24 26 27 28 28 23 28 30 37 41 43 39 40 36 34 33 37
11 13 14 19 12 11 13 14 16 16 15 17 20 18 18 19 18 16 20 24 23 26 32 33 27 26 25 28 30 40 46 41 37 37 36 39 39 39
16 16 12 10 8 10 15 16 14 12 15 17 16 17 18 18 18 21 20 20 21 24 25 15 22 25 21 25 28 36 32 32 34 30 36 37 32 31
12 5 5 5 8 9 5 9 9 11 12 13 15 16 17 18 19 19 21 22 23 23 19 23 26 24 25 28 31 34 29 17 36 36 38 29 21 24
11 9 8 10 12 14 14 13 12 12 12 12 14 16 17 18 18 19 20 22 21 20 20 23 26 23 23 25 29 29 29 31 33 33 34 16 14 20
6 11 13 12 12 10 10 9 10 10 11 11 13 16 16 17 17 18 19 19 19 20 19 20 24 22 25 24 16 24 26 29 34 34 30 21 12 21
8 11 10 9 10 9 9 10 11 10 8 13 14 15 15 15 16 17 17 18 18 19 19 20 21 18 9 11 19 23 28 30 31 28 28 24 17 16
8 8 7 7 8 8 9 9 10 10 12 13 13 14 13 13 14 15 16 16 18 19 14 15 16 19 11 9 11 28 32 31 29 27 29 28 20 16
6 5 6 7 8 7 8 8 9 11 10 12 11 11 11 12 13 15 16 17 18 17 16 17 9 14 17 15 14 20 33 34 31 28 29 24 14 7
6 6 5 5 6 6 8 8 10 10 10 9 9 9 10 11 13 15 16 18 17 17 17 16 4 19 22 10 15 23 27 35 35 31 32 29 14 6
7 7 6 5 6 6 8 9 10 9 8 7 8 9 10 12 13 14 16 17 17 17 18 20 6 9 16 15 15 19 25 28 33 31 33 30 26 29

GFSNE_925_spd_015.txt.gz
Wind_Speed
14 14 14 13 7 2 3 7 5 2 2 3 1 5 6 4 9 11 12 14 15 16 17 16 16 18 18 18 18 17 18 19 20 19 19 18 17 16
18 16 14 14 9 6 1 6 8 8 2 3 2 5 5 8 10 13 15 17 18 20 23 23 22 23 24 24 25 24 21 21 21 20 20 20 19 16
22 19 17 17 13 13 6 2 3 4 6 5 7 9 10 14 14 16 17 20 22 24 25 24 23 24 24 25 25 26 26 25 23 21 21 20 20 20
25 23 20 15 18 16 13 9 5 5 4 6 10 13 15 16 15 17 19 20 23 23 24 22 26 28 29 28 31 34 33 29 28 27 26 25 23 21
28 25 23 21 21 19 17 15 12 10 9 10 15 17 19 20 21 20 20 15 11 12 18 21 23 24 24 27 25 24 27 35 32 32 33 33 31 30
25 26 26 24 23 22 19 17 16 17 16 15 17 18 18 20 15 10 15 20 23 20 20 20 24 22 21 19 18 17 17 19 22 30 34 35 34 35
25 27 28 27 25 24 23 22 21 20 20 19 18 20 23 20 14 15 16 22 25 25 24 22 22 22 25 28 29 30 27 27 25 27 29 27 24 24
29 28 29 27 26 25 25 23 23 24 24 22 22 22 24 21 18 17 18 18 6 21 13 28 28 25 21 22 21 21 24 26 29 21 19 24 28 32
30 30 29 28 27 27 27 27 26 27 24 23 22 26 27 26 22 20 22 19 21 29 24 25 25 24 15 21 26 23 24 26 26 27 34 37 39 39
31 31 29 30 27 24 20 22 23 19 20 20 24 26 26 23 22 22 23 21 26 26 23 14 20 21 22 20 19 23 31 35 36 36 36 39 42 45
28 27 27 25 25 21 20 21 21 26 21 23 20 19 20 22 23 21 22 23 15 23 25 23 24 22 23 25 23 25 25 30 36 35 36 42 46 45
28 27 22 21 21 16 17 26 22 22 15 13 13 13 14 17 20 24 28 21 18 11 14 16 25 26 14 23 27 28 32 38 35 36 38 44 39 42
21 21 21 22 22 21 22 26 22 15 12 14 17 18 18 17 20 14 7 9 13 20 21 24 24 24 19 16 23 26 27 31 33 36 40 39 40 42
18 17 17 21 24 20 21 17 13 11 12 14 15 14 14 9 8 10 12 12 14 17 16 17 22 28 25 18 17 24 28 29 28 33 36 41 41 39
17 11 12 14 17 19 16 9 9 10 8 10 10 11 10 10 9 14 14 14 14 18 20 20 20 21 14 20 19 25 24 24 25 26 37 38 41 40
17 14 9 8 9 9 11 12 12 11 11 11 10 11 7 8 12 12 14 16 20 21 18 19 19 10 18 21 27 26 29 17 31 34 36 41 41 38
13 11 12 11 10 12 14 13 13 13 14 14 14 7 6 11 10 14 15 18 19 20 22 21 21 20 23 21 23 29 29 30 29 33 36 39 40 36
13 12 11 11 12 15 16 15 15 14 15 10 5 7 7 7 12 15 14 17 20 20 21 28 26 22 22 22 19 26 27 28 33 34 37 34 39 38
13 12 10 9 4 11 10 6 4 5 4 2 2 4 8 10 14 12 15 18 19 23 26 29 19 14 3 5 20 22 20 29 30 33 32 32 35 44
12 11 6 8 9 8 6 6 8 6 2 4 8 9 7 11 9 12 17 18 21 25 29 16 21 16 4 4 7 25 24 26 31 32 34 33 32 33
10 12 7 13 13 11 8 5 3 1 4 7 7 8 8 8 9 13 18 19 23 28 17 21 24 15 7 16 12 14 26 26 29 32 30 29 27 23
3 14 13 9 6 3 1 1 2 2 5 9 6 2 4 7 11 16 15 19 26 24 11 25 26 8 6 13 15 17 22 31 29 30 27 28 25 7
8 13 12 7 2 3 4 4 3 4 7 3 4 2 5 10 14 11 15 22 22 21 17 21 26 4 8 11 9 16 22 27 29 32 28 32 27 25

GFSNE_925_spd_021.txt.gz
Wind_Speed
17 15 13 12 8 7 9 9 7 3 3 5 4 3 3 8 10 13 15 16 16 16 17 18 19 17 17 16 16 17 20 20 19 18 17 15 14 13
17 17 17 14 13 9 8 7 8 6 2 6 7 6 3 4 6 9 10 11 13 16 19 21 23 23 22 22 21 21 20 20 21 21 20 18 16 14
19 18 16 14 14 14 11 9 10 10 8 7 9 8 8 7 8 11 12 14 15 16 16 17 18 19 19 16 16 18 20 21 21 21 22 23 21 20
24 22 21 18 16 15 14 13 11 10 10 10 8 10 11 9 11 14 15 13 14 15 10 11 17 18 18 19 19 19 19 18 19 20 19 20 23 24
28 26 24 22 21 19 17 19 17 15 13 12 10 8 11 13 13 13 15 19 20 14 15 19 18 15 16 16 15 14 14 14 16 15 15 14 14 17
32 28 27 25 25 22 21 18 17 16 16 16 14 13 12 14 14 15 18 21 20 18 19 19 11 15 16 16 17 20 18 15 16 17 17 18 19 19
32 30 27 26 27 26 23 22 20 19 18 17 14 11 12 19 21 19 19 19 19 19 16 14 15 17 13 13 12 10 12 13 16 18 18 17 15 15
35 30 28 28 28 27 25 24 24 21 20 17 13 12 14 19 21 22 23 16 5 14 11 15 19 16 16 17 16 17 16 17 20 19 16 18 17 17
33 32 31 31 30 26 22 21 23 23 20 15 14 13 14 18 23 20 20 16 18 21 18 16 21 22 18 17 17 18 20 22 19 19 20 20 19 22
28 26 29 30 31 26 22 20 19 19 18 21 16 15 17 19 22 19 17 17 17 20 20 7 18 22 17 13 15 19 22 19 21 21 23 24 23 25
22 22 26 26 24 23 20 20 20 16 12 14 17 17 19 18 13 12 15 14 12 17 19 8 9 15 18 20 17 14 17 20 20 23 25 26 26 26
20 21 21 19 18 17 19 19 17 15 15 15 14 13 9 11 13 15 14 15 14 5 4 5 11 11 6 16 13 19 17 17 22 22 26 24 24 25
20 19 20 18 17 19 18 19 15 14 13 12 7 5 7 7 6 2 4 6 9 10 13 11 8 16 13 11 13 20 20 21 25 26 25 27 25 24
18 16 14 11 11 10 11 13 14 13 10 8 6 2 1 0 3 5 6 9 10 12 12 16 15 18 17 8 13 22 24 26 27 26 27 31 30 30
16 14 11 10 11 12 12 12 13 13 11 9 7 6 4 4 6 6 9 10 12 14 14 15 16 17 18 20 19 27 25 27 24 25 32 32 32 33
17 13 11 10 9 10 9 10 11 11 10 8 6 6 7 8 8 8 10 11 14 13 12 14 17 18 20 22 22 26 30 15 26 30 31 32 31 31
19 17 15 12 9 9 9 9 9 9 10 10 9 9 9 9 9 9 10 11 10 13 16 17 20 20 16 19 24 27 22 21 23 29 33 30 31 31
20 17 14 13 12 12 10 9 9 11 11 11 11 11 9 8 9 9 10 9 10 14 16 20 21 13 21 22 21 17 17 17 26 27 29 25 31 30
19 17 17 16 14 11 8 10 11 9 9 11 10 9 7 7 9 8 6 8 12 15 17 19 16 12 3 4 14 10 13 22 25 27 24 26 33 37
19 20 17 15 12 10 12 12 10 8 9 9 8 7 6 4 4 6 7 10 12 14 16 17 16 16 8 5 7 23 18 20 24 25 28 31 33 36
19 17 15 13 12 15 14 12 11 11 10 8 8 8 8 6 6 6 8 8 11 12 14 17 17 15 14 10 11 16 23 22 25 23 29 28 30 34
19 16 13 15 18 18 16 15 14 13 11 10 10 9 10 8 6 6 6 8 12 12 14 17 13 13 8 6 12 19 24 29 30 26 21 24 30 13
19 14 17 18 20 19 19 16 14 13 12 11 9 9 11 8 5 5 5 7 9 13 16 15 12 11 10 10 12 20 25 27 28 31 28 30 33 31

GFSNE_925_spd_024.txt.gz
Wind_Speed
15 15 14 12 9 9 9 8 6 2 2 4 5 5 4 5 7 12 11 13 15 16 16 16 16 17 19 20 19 19 18 17 17 17 17 16 14 14
17 17 18 16 14 12 10 11 11 9 2 5 6 5 4 3 4 6 7 8 10 12 14 14 15 16 16 17 19 21 19 17 18 19 20 19 19 18
21 20 19 18 17 16 14 12 11 11 7 4 6 7 9 6 6 7 8 8 9 10 11 12 11 10 11 12 13 14 16 17 18 19 21 22 22 22
26 24 21 18 19 17 16 15 13 11 9 8 6 8 9 7 6 8 8 5 8 12 12 9 12 15 16 17 17 16 17 17 17 15 14 14 17 20
30 28 25 23 23 20 18 17 17 15 13 12 11 10 7 7 8 7 8 13 14 15 13 14 15 16 13 15 15 16 18 18 17 18 18 18 17 17
33 30 27 26 24 23 21 19 18 18 16 14 12 11 10 8 7 8 14 14 15 17 15 15 13 9 12 11 12 12 11 10 11 11 14 16 18 19
35 32 28 25 23 23 24 22 20 18 17 16 15 11 11 11 11 7 13 18 23 18 15 13 11 14 15 12 13 12 12 13 13 13 16 16 13 14
37 36 31 29 26 27 24 22 23 23 21 20 20 16 13 10 9 9 11 12 6 13 8 13 17 18 18 18 16 16 16 16 16 18 18 16 18 20
36 35 31 30 30 28 25 22 22 22 20 19 19 16 14 12 10 12 14 15 12 18 15 12 17 20 20 17 15 15 17 18 18 18 17 17 17 20
34 32 27 29 30 28 25 22 19 19 18 17 20 20 16 13 12 13 13 13 14 17 16 6 14 18 13 14 15 16 19 19 18 19 18 17 19 22
34 28 24 25 24 22 21 20 19 18 14 13 14 15 14 13 12 10 9 7 5 9 13 6 7 11 16 18 12 12 14 18 18 17 19 19 21 22
32 26 24 22 18 16 18 17 18 17 13 13 16 15 11 8 7 9 9 7 5 3 5 6 10 9 6 15 11 16 16 18 18 15 17 19 19 22
26 29 24 19 16 14 14 14 13 13 14 13 13 11 9 6 5 5 5 7 7 8 11 9 8 10 8 8 14 20 20 21 19 20 20 17 20 22
28 28 22 19 15 14 14 14 13 15 13 13 12 12 9 8 8 7 6 6 8 9 12 13 11 14 10 7 11 18 21 21 20 20 16 20 25 26
26 24 20 18 16 14 14 15 15 17 16 16 15 14 10 8 7 6 7 7 7 9 10 13 14 14 14 15 12 15 13 14 16 14 17 19 20 23
24 21 20 17 14 13 13 13 16 18 20 17 15 12 10 8 6 7 7 7 8 11 8 12 12 13 16 15 15 17 17 9 10 15 17 20 22 24
25 23 21 18 15 14 15 16 17 17 17 15 14 12 10 9 8 8 6 6 6 7 11 12 14 16 11 14 15 20 15 11 13 17 22 24 24 25
27 24 21 20 20 18 19 19 18 18 16 13 12 10 10 10 8 6 4 4 5 7 10 13 15 13 12 18 18 18 11 13 17 20 22 22 28 30
21 22 22 21 20 22 22 21 19 17 13 12 11 9 10 9 7 6 5 4 4 7 10 12 12 6 6 9 15 8 11 16 18 22 23 24 28 34
23 27 25 24 24 24 21 18 15 14 13 12 10 10 11 10 8 6 5 3 4 6 9 12 11 10 6 6 9 15 16 17 19 24 26 27 30 32
24 25 25 27 24 20 17 17 16 14 13 12 12 12 13 11 8 6 4 3 3 5 7 10 14 13 14 12 10 16 15 23 23 22 24 24 27 34
26 26 26 25 22 19 20 18 16 15 13 13 13 12 14 11 9 7 5 4 4 5 9 14 13 11 9 7 13 16 21 24 23 23 21 17 24 14
28 28 25 21 20 23 22 20 16 14 14 15 15 14 14 14 12 8 6 5 4 5 7 10 12 10 8 10 11 14 21 25 25 28 23 21 29 33

GFSNE_925_spd_027.txt.gz
Wind_Speed
14 14 12 11 9 9 8 7 7 4 4 6 7 8 7 6 5 7 10 11 10 12 12 13 13 14 15 16 17 19 19 20 19 17 16 15 15 15
15 16 16 13 12 11 10 9 9 10 6 6 6 7 7 5 5 6 6 8 9 10 12 13 15 15 15 15 16 17 19 21 21 19 18 17 17 18
19 18 18 16 14 13 12 11 10 10 10 5 5 6 9 7 5 6 6 8 8 9 9 10 13 13 12 13 15 17 18 19 19 20 20 20 21 21
21 19 20 16 17 15 14 14 13 11 11 9 6 6 7 8 8 8 7 7 7 9 9 10 11 11 14 16 16 15 16 16 16 17 18 17 16 16
24 23 22 19 19 18 18 14 13 12 12 12 10 6 7 8 8 9 7 7 9 10 8 10 13 14 15 11 14 15 14 15 17 19 20 20 19 17
28 27 25 24 23 25 18 16 14 14 12 13 13 11 9 9 9 10 11 10 9 11 12 12 14 15 12 12 14 12 13 14 12 11 12 13 14 17
28 30 30 30 28 26 19 19 18 16 15 15 13 12 12 12 12 10 13 10 11 10 9 7 9 9 11 13 13 13 13 15 16 17 16 16 18 17
31 29 29 32 31 28 27 26 22 21 19 16 16 15 13 14 14 12 11 11 12 9 5 8 8 12 13 14 16 17 17 17 17 17 18 18 17 17
33 29 25 23 32 31 32 28 26 25 22 19 18 17 14 18 12 10 10 11 13 9 7 12 11 14 14 14 14 12 13 15 16 17 18 18 17 18
32 31 26 24 27 33 26 25 25 25 25 23 20 18 19 11 12 9 8 10 11 10 8 10 11 12 10 11 15 15 13 15 16 18 19 18 18 19
30 27 25 26 27 30 28 23 20 20 21 20 19 17 15 13 12 10 10 8 10 9 6 8 7 10 12 15 12 11 11 17 15 18 20 16 18 19
25 24 30 27 26 25 24 21 21 20 18 19 19 16 14 13 12 12 9 11 10 7 4 7 10 11 9 10 8 14 13 15 17 15 16 18 19 18
26 23 22 27 27 22 23 20 21 18 19 16 14 12 11 9 9 10 8 8 6 7 6 5 11 12 11 14 14 14 14 15 15 16 17 18 19 16
27 23 22 26 26 22 23 20 20 16 17 17 15 13 13 11 10 9 9 8 6 8 7 9 10 12 13 14 16 15 15 16 17 18 17 15 17 19
22 25 28 25 23 22 24 23 21 18 18 16 14 12 12 11 10 9 10 10 9 9 9 10 11 12 12 15 17 16 17 19 18 16 15 15 19 22
27 24 21 24 25 25 23 22 18 18 18 14 13 12 13 11 10 10 9 7 7 8 6 8 11 11 14 15 13 16 18 19 17 16 16 21 24 24
25 23 24 21 19 18 16 18 15 15 15 13 13 14 14 12 11 9 8 7 7 8 9 10 10 14 15 14 13 15 18 17 16 18 19 25 26 23
17 22 20 19 17 20 18 19 18 17 14 13 12 14 14 12 11 9 8 7 8 7 8 12 12 11 10 12 11 13 16 17 19 20 23 24 29 27
32 29 23 23 22 21 21 21 18 16 15 14 14 14 12 12 13 10 8 7 7 7 8 11 12 10 9 7 10 8 13 17 20 23 24 25 29 31
37 34 27 25 22 21 19 17 17 16 15 15 13 13 12 12 10 9 9 8 9 8 9 10 10 9 9 10 12 13 12 13 20 25 26 27 28 28
21 25 26 23 22 21 19 18 16 16 16 15 14 13 13 12 10 9 8 8 9 10 10 9 7 10 8 7 8 13 14 16 19 23 25 26 26 30
21 22 23 22 22 22 20 17 17 17 15 13 11 11 11 10 10 11 9 8 10 11 10 9 9 8 7 7 10 13 15 20 19 21 20 16 19 16
30 28 26 24 25 20 20 21 19 17 14 13 12 12 11 11 11 11 9 9 11 10 8 9 9 8 7 5 7 13 16 20 23 23 19 18 23 30

GFSNE_925_spd_030.txt.gz
Wind_Speed
13 13 12 11 10 9 8 7 8 5 5 10 9 8 6 7 7 6 8 11 13 12 12 13 13 14 16 16 16 16 16 17 18 17 17 16 16 16
15 15 15 14 12 11 10 10 10 11 6 4 6 5 5 6 7 5 6 10 9 10 11 12 15 17 19 19 18 16 16 16 17 17 16 16 16 16
18 17 18 16 15 13 13 13 14 13 10 8 7 6 8 8 7 8 9 8 9 11 13 13 13 15 18 18 17 19 20 19 19 20 20 19 18 17
21 20 20 18 16 14 15 16 15 11 12 10 8 9 10 11 13 12 11 11 11 6 11 13 15 15 15 16 18 19 17 17 18 18 19 18 17 15
24 23 21 20 19 18 19 16 14 14 14 14 11 11 11 11 12 12 12 11 10 13 14 14 13 14 17 18 17 15 18 16 14 14 13 14 15 17
26 25 24 23 22 21 20 18 15 14 14 13 15 14 12 12 12 13 13 11 13 12 15 15 16 17 19 18 16 17 17 16 15 13 13 14 14 15
27 27 26 25 25 24 20 19 18 18 17 17 17 16 14 13 13 11 13 15 11 13 14 12 15 13 13 14 17 15 14 16 17 18 17 18 17 17
30 28 25 27 29 31 30 23 21 20 20 19 18 17 13 13 13 13 15 12 13 6 7 12 10 13 15 17 15 13 17 19 17 16 17 19 19 19
31 29 27 26 28 27 33 30 29 27 25 20 21 19 15 15 14 14 14 14 14 11 8 16 14 15 16 17 10 12 12 15 16 16 16 17 17 19
32 31 31 30 27 26 25 27 29 27 29 27 24 21 19 14 14 15 14 12 12 14 11 10 12 14 13 13 15 12 12 13 14 19 20 18 18 17
36 33 31 30 29 31 25 25 22 24 24 26 25 23 20 18 14 14 14 11 13 11 7 7 10 11 12 16 14 11 15 16 16 17 19 20 20 19
34 33 36 33 30 31 28 25 25 24 22 19 25 26 23 18 18 17 12 13 11 10 2 6 11 11 11 13 8 15 15 15 16 19 17 18 18 19
35 34 35 37 34 34 32 31 28 21 22 21 19 19 17 16 16 17 13 10 8 9 3 4 11 12 13 15 16 16 16 16 18 19 19 18 17 17
35 36 33 35 37 37 31 29 24 22 18 20 20 19 18 18 17 14 12 9 6 8 3 5 9 12 14 15 15 15 17 18 19 21 20 21 20 20
35 30 30 31 33 36 30 31 27 24 19 19 20 20 18 17 13 14 11 9 9 9 8 8 10 12 13 15 14 15 17 20 21 20 21 21 20 20
27 24 28 26 27 30 28 28 27 24 21 22 20 18 17 16 18 16 13 10 12 11 12 8 8 11 14 12 14 16 16 20 23 21 20 22 23 23
30 32 31 30 26 23 20 24 23 23 22 22 19 18 19 20 18 16 12 10 13 11 9 8 8 11 15 12 14 14 15 18 22 22 21 25 24 23
35 28 27 30 27 26 19 20 21 22 24 23 21 21 21 20 18 15 12 13 14 12 9 8 9 13 15 14 18 13 14 18 22 23 23 25 26 24
29 33 32 32 32 36 32 24 24 23 24 22 23 21 21 19 18 15 12 14 13 11 8 9 9 11 11 8 10 7 11 17 21 24 24 25 27 27
39 37 36 39 37 35 32 30 27 25 23 22 22 21 20 18 16 15 14 14 12 10 8 9 11 12 14 11 13 16 15 14 18 23 27 27 26 26
26 25 28 31 30 32 31 30 28 26 24 24 23 20 19 18 16 14 14 11 9 9 9 11 10 9 11 12 15 13 10 15 13 20 24 26 25 25
24 27 28 29 30 28 27 27 25 22 22 22 20 19 18 16 15 15 15 14 13 11 12 11 9 10 12 12 14 12 14 14 17 17 20 16 18 18
23 24 23 26 29 30 25 23 21 22 23 21 19 18 16 15 14 15 15 14 11 11 12 11 11 12 13 12 11 13 14 14 18 18 19 15 14 20

GFSNE_925_spd_033.txt.gz
Wind_Speed
14 14 13 10 10 10 8 6 7 5 5 12 6 10 7 7 10 8 10 14 14 14 14 14 12 13 14 15 16 16 15 14 13 14 16 18 18 17
16 17 16 14 13 11 10 9 8 8 6 3 7 7 7 7 9 9 9 10 12 11 12 12 13 15 16 17 18 17 16 15 16 16 16 16 15 16
18 17 18 17 15 14 13 12 11 10 10 11 7 6 7 8 7 8 11 11 12 17 13 13 15 15 16 17 18 16 16 18 17 16 16 15 15 14
22 21 21 18 20 17 14 14 14 13 13 8 11 8 12 13 14 12 13 14 13 9 13 11 14 16 18 18 16 16 17 16 16 16 15 16 15 17
25 25 24 23 22 20 21 17 17 15 13 15 14 13 13 11 13 13 14 13 14 15 16 18 14 13 16 18 18 17 16 15 14 14 13 13 13 13
29 28 27 26 26 24 21 23 18 15 16 15 14 15 14 14 12 11 13 15 14 12 14 10 15 14 16 19 17 16 15 13 13 14 15 16 16 16
31 31 29 28 29 28 25 24 20 19 17 16 16 16 17 14 13 15 12 11 13 15 14 12 12 12 16 19 17 15 12 12 13 15 18 17 18 19
32 31 31 32 33 33 33 25 24 22 20 18 17 17 14 13 13 14 12 12 10 9 9 11 12 13 14 14 1 9 7 9 11 13 15 16 16 19
34 34 32 31 34 32 36 35 29 29 26 22 20 19 12 10 12 9 12 14 14 11 6 11 13 15 11 7 6 8 10 11 13 15 13 15 16 16
37 37 35 34 34 36 32 36 39 34 32 31 24 21 18 15 7 11 13 12 13 16 14 12 11 11 11 11 13 12 9 11 15 13 14 15 17 17
39 36 37 35 35 38 34 30 29 32 32 35 33 26 24 18 15 12 14 10 12 17 17 15 9 9 10 12 12 10 9 13 12 12 17 15 15 15
41 38 41 40 39 39 41 33 30 30 30 29 30 35 29 26 21 22 15 14 16 14 8 15 8 9 10 12 8 10 13 14 13 17 16 17 18 16
40 40 43 49 47 46 46 38 35 27 28 26 27 23 21 20 16 22 19 17 16 16 6 5 8 10 11 14 13 13 13 12 14 17 19 20 12 13
38 38 37 44 49 45 42 38 31 29 24 29 22 21 25 23 22 20 19 17 14 10 5 7 6 10 11 13 13 12 12 12 13 18 19 19 19 19
41 32 38 33 44 48 42 40 30 32 26 25 26 25 25 23 21 20 19 16 15 9 9 8 8 9 11 14 13 12 13 13 13 16 20 20 18 19
44 38 31 40 43 45 40 38 36 32 30 27 24 21 28 22 23 24 20 18 15 16 18 15 12 9 10 12 10 12 11 13 14 16 18 20 21 20
37 28 20 26 31 36 38 41 39 38 30 29 31 21 19 21 23 23 20 21 19 17 14 15 16 12 9 13 12 9 9 11 12 16 20 21 21 20
30 27 26 28 31 36 40 37 36 34 32 27 25 19 24 23 20 19 20 18 17 15 13 11 15 13 14 19 20 11 9 10 12 16 19 20 21 21
34 32 31 32 33 32 32 38 37 41 35 31 26 25 24 21 22 20 19 19 17 15 12 11 12 12 10 8 5 13 4 9 13 15 17 20 22 22
35 35 36 35 30 33 32 28 27 29 30 33 28 26 25 23 21 20 21 19 17 15 13 13 14 13 12 10 8 6 11 12 10 16 18 23 23 23
37 34 36 34 31 29 28 31 30 29 30 28 26 26 25 24 23 21 21 17 16 15 14 13 14 11 7 8 11 9 4 5 8 9 17 19 22 22
37 37 39 38 37 32 30 29 30 30 30 26 25 24 24 23 20 21 20 18 15 16 14 12 11 7 10 13 12 10 10 9 13 15 15 14 13 15
18 24 37 36 28 32 31 31 31 30 30 28 26 24 23 22 19 19 18 17 17 16 16 15 14 12 14 13 11 11 11 13 11 15 15 15 17 14

GFSNE_925_spd_036.txt.gz
Wind_Speed
18 17 17 10 10 10 10 8 6 1 4 11 7 13 10 13 12 9 11 13 14 13 13 15 16 14 13 13 13 13 13 13 12 13 14 15 14 12
20 20 19 18 11 13 11 11 9 7 2 7 14 14 13 8 10 12 11 13 13 14 15 15 13 13 13 14 14 14 12 11 12 13 12 12 13 13
23 23 25 20 18 14 16 14 11 11 8 13 6 14 16 13 9 9 11 11 11 16 19 14 12 13 13 14 15 16 13 11 12 12 13 13 12 13
33 27 24 25 24 21 12 18 16 13 13 12 13 8 12 13 13 11 11 12 16 12 19 18 15 13 14 16 17 16 16 14 12 12 13 12 11 11
29 31 27 24 24 28 25 17 19 17 12 14 14 12 13 16 16 14 15 16 15 15 15 17 15 13 14 14 18 17 16 14 11 11 11 13 13 13
29 30 31 31 31 30 29 28 22 20 23 20 19 19 16 19 20 20 20 18 19 17 16 18 12 17 16 14 13 14 13 13 12 12 11 13 14 15
33 31 33 34 35 37 33 32 30 29 21 24 21 19 18 15 23 23 18 14 15 16 15 16 17 13 14 16 17 18 15 13 13 12 14 16 15 15
35 35 35 37 39 40 39 34 36 32 30 25 20 20 24 23 17 23 22 20 7 10 10 15 12 13 17 16 8 8 12 12 11 9 12 14 14 13
38 37 36 37 40 42 42 39 34 34 36 35 27 25 18 22 19 16 17 11 9 8 9 8 10 13 15 11 6 2 6 6 4 8 11 12 13 12
42 42 39 38 39 43 42 46 44 42 41 39 36 35 29 20 16 19 15 12 11 13 13 8 14 14 8 8 6 4 4 5 7 9 9 8 8 10
44 43 43 42 43 43 42 39 43 45 44 41 41 29 24 23 18 17 14 14 10 12 14 18 17 14 6 8 9 9 5 9 10 8 9 8 10 11
43 43 46 47 45 47 46 37 33 36 35 34 42 40 32 25 24 21 20 17 11 10 16 19 21 12 4 9 8 6 8 9 9 8 7 9 14 14
41 41 45 49 52 48 49 43 43 33 38 39 35 35 33 33 30 33 28 23 19 19 10 17 12 8 6 6 11 7 7 7 6 5 9 11 10 13
37 36 37 43 47 53 51 51 44 40 34 34 30 30 33 35 33 28 28 24 22 18 15 20 8 9 4 7 8 9 8 8 8 9 6 8 12 9
43 38 30 36 37 47 54 54 50 41 33 30 31 33 37 34 27 27 23 21 20 12 15 18 15 11 9 9 9 11 11 11 11 6 7 5 9 14
50 52 46 44 26 37 49 58 53 44 40 33 31 27 27 27 28 27 29 29 28 18 15 16 12 12 12 13 13 13 10 8 11 11 2 8 10 13
46 39 37 38 38 28 32 41 47 43 39 32 30 26 29 29 31 31 27 29 18 20 21 23 19 16 13 12 13 15 13 15 14 5 8 12 11 8
30 32 32 33 32 32 30 32 37 39 37 32 27 28 27 26 30 31 31 25 22 21 23 26 25 18 17 20 21 19 15 15 8 7 7 8 8 12
24 25 29 31 32 33 34 38 36 36 37 33 35 28 26 27 33 31 29 27 22 25 27 24 29 22 12 7 13 13 21 10 9 10 6 5 10 15
26 28 30 32 31 33 34 36 37 35 36 39 37 27 30 36 33 27 26 26 24 23 20 19 23 24 15 8 5 4 19 15 14 12 8 9 12 12
17 24 27 28 33 39 40 41 45 43 41 38 29 31 30 32 30 27 27 28 25 23 20 20 21 18 16 13 5 5 13 16 19 16 8 9 9 9
23 27 29 30 29 32 40 44 41 38 42 35 31 36 35 31 29 31 29 26 26 24 21 19 16 18 18 13 9 12 14 10 8 12 9 10 6 4
16 16 18 21 17 14 32 40 35 43 33 31 31 34 36 31 29 28 27 23 24 22 18 17 18 18 16 15 16 15 10 12 15 8 6 2 7 11

GFSNE_925_spd_042.txt.gz
Wind_Speed
19 18 17 15 12 11 12 13 8 3 5 13 12 24 26 27 23 25 24 22 20 18 17 15 13 12 12 12 12 12 10 9 10 9 9 9 9 9
20 21 22 21 19 18 15 14 14 11 3 12 17 17 25 29 26 24 24 22 20 19 17 18 16 15 13 13 13 12 11 9 10 9 9 8 8 8
24 23 22 24 27 24 20 17 19 17 13 14 13 18 18 26 28 26 24 24 22 19 18 18 18 18 16 13 13 13 12 10 9 9 9 8 8 7
30 27 29 27 27 30 27 25 22 22 21 20 18 17 20 24 28 28 25 24 25 23 21 19 18 20 19 16 14 13 13 9 8 8 9 9 8 9
35 33 34 32 32 30 30 31 28 25 25 25 25 19 20 24 28 28 28 26 25 24 22 22 20 19 22 20 17 15 13 11 9 10 11 10 10 10
37 37 37 37 36 35 33 33 33 31 27 28 27 23 22 25 28 29 31 31 30 26 24 24 23 20 20 21 20 20 18 15 12 12 12 10 12 12
39 40 40 40 40 40 39 38 36 36 36 31 29 25 23 25 29 32 33 34 33 29 27 26 24 21 22 24 24 22 21 19 16 11 10 8 11 12
42 42 42 42 43 44 43 43 41 39 35 29 27 24 30 35 31 35 33 25 14 33 32 30 27 27 26 25 25 19 20 21 16 12 9 7 7 6
42 40 41 44 45 45 46 47 46 47 46 40 35 37 33 38 38 35 35 29 28 29 31 34 31 32 29 27 25 21 19 17 13 13 10 6 2 3
41 42 41 40 42 44 44 42 49 53 53 51 47 45 43 40 41 42 40 41 37 33 34 24 31 32 26 24 23 19 19 17 14 14 12 9 4 2
38 39 41 42 42 40 41 39 39 51 49 54 56 55 53 45 44 38 33 27 20 27 34 35 27 30 26 27 22 21 20 18 17 15 13 12 10 8
37 41 42 46 41 39 41 38 39 46 36 39 50 55 57 55 49 45 38 32 29 18 34 32 26 23 8 23 25 27 24 21 18 16 15 14 12 10
35 37 37 38 40 43 43 46 50 45 39 41 41 40 47 49 53 54 50 45 36 29 35 43 29 24 13 6 25 30 28 25 24 22 20 18 16 14
36 35 35 36 38 40 43 51 55 53 48 40 34 36 35 37 43 50 53 54 46 45 34 35 21 28 26 14 11 27 29 26 24 24 21 20 17 14
42 38 37 37 39 41 44 47 49 51 44 40 39 37 38 41 41 46 44 46 47 51 43 40 35 29 31 26 19 21 28 26 24 22 22 20 17 14
41 44 43 43 40 38 39 43 46 47 39 39 41 42 39 37 39 41 40 38 39 34 43 40 37 34 36 32 30 23 25 17 27 23 20 19 16 11
28 29 31 29 27 27 28 35 37 39 39 40 39 40 40 35 34 38 41 38 32 27 28 34 35 36 34 32 20 27 27 21 22 22 20 20 15 11
10 14 19 21 21 22 23 26 29 34 39 37 38 40 39 38 32 35 38 37 36 32 29 27 30 24 17 21 29 29 24 26 25 21 22 20 15 15
8 7 8 10 13 16 18 20 24 28 31 33 40 39 33 42 39 37 37 37 32 25 23 33 38 28 10 6 19 21 28 25 22 21 23 21 15 14
2 3 6 9 14 16 18 20 24 26 30 34 36 37 42 36 42 39 36 37 38 33 30 32 35 37 26 15 12 27 26 25 25 23 24 18 12 10
6 7 11 14 16 17 18 21 21 25 31 34 36 36 36 34 36 39 39 20 20 26 24 21 32 36 26 23 13 14 26 24 24 28 23 21 16 13
9 12 13 14 17 20 24 22 24 22 26 29 28 25 12 15 21 28 27 24 16 23 20 23 29 30 25 20 16 17 22 21 21 24 20 20 17 11
10 13 15 17 17 18 20 20 18 19 15 20 20 9 16 27 23 18 22 26 26 27 30 24 25 28 23 22 24 23 22 23 25 27 26 22 20 20

GFSNE_925_spd_045.txt.gz
Wind_Speed
18 18 17 17 13 12 12 10 8 3 3 10 14 17 23 25 24 24 24 23 23 22 21 19 18 17 16 15 14 13 12 12 11 10 8 6 5 6
20 21 23 21 18 17 15 14 14 11 3 6 13 19 18 23 26 27 27 26 27 26 25 22 21 20 19 17 18 16 14 12 11 10 9 7 6 4
24 24 25 24 25 22 22 19 18 17 13 17 14 18 18 22 25 30 31 30 29 28 28 24 23 22 21 21 18 16 15 12 11 10 9 7 6 5
29 29 29 26 26 24 25 26 25 21 21 22 22 20 19 21 21 27 32 32 30 28 28 27 25 24 24 23 23 19 16 13 10 10 9 8 8 7
34 33 33 31 31 30 28 28 30 28 24 25 28 27 24 23 24 28 31 34 33 31 29 28 28 28 27 24 25 24 21 15 12 12 12 10 10 8
36 35 35 36 37 36 34 33 31 30 31 32 31 32 29 27 27 28 31 35 37 35 32 31 30 29 28 27 27 27 26 20 16 15 14 12 10 9
39 39 38 38 39 38 38 39 37 37 35 36 32 34 30 27 28 32 35 36 38 37 37 36 32 31 31 30 29 27 26 24 21 19 15 12 10 8
40 41 41 40 40 41 41 42 41 39 34 28 29 27 31 31 34 34 35 24 15 36 39 43 38 38 36 34 31 28 25 26 23 21 17 13 7 4
43 42 42 43 44 44 44 44 45 47 48 39 33 36 35 35 37 36 36 33 33 32 29 34 40 43 40 39 34 30 26 26 24 23 19 15 9 4
43 44 44 45 43 43 42 42 46 48 48 50 50 50 44 38 37 41 41 38 37 36 36 30 32 40 42 42 37 29 23 25 24 22 21 18 13 7
41 42 45 44 44 41 39 38 41 47 40 44 48 50 52 53 46 37 34 28 25 29 39 32 29 30 34 37 33 28 24 25 26 25 23 21 17 13
37 41 41 43 41 38 39 39 39 39 32 35 41 46 47 49 52 47 42 31 29 20 31 28 27 26 9 30 31 29 24 26 31 29 27 24 21 18
34 33 32 34 38 41 44 44 44 44 38 39 39 37 35 37 44 48 51 45 36 37 33 33 29 29 22 10 25 28 24 34 38 32 29 27 24 20
33 31 32 34 37 37 39 43 47 49 46 37 35 36 34 29 34 43 52 53 56 57 47 42 35 37 35 16 11 31 31 41 41 37 34 30 26 22
41 36 34 31 30 31 35 38 41 45 38 32 35 38 39 41 39 39 46 51 56 59 55 49 46 39 40 31 26 25 28 44 43 40 36 33 29 26
41 42 40 38 37 36 37 38 36 37 37 32 34 38 38 35 36 35 38 40 41 42 49 54 51 42 36 37 41 33 35 27 42 37 34 30 27 24
34 32 31 28 27 24 22 23 24 25 28 32 34 34 34 35 36 36 37 38 38 35 34 36 46 49 41 38 26 33 39 32 36 38 30 28 26 25
14 16 14 13 13 14 15 18 17 16 19 23 25 27 30 32 32 34 36 37 37 30 30 33 36 30 26 24 34 38 32 32 31 39 34 30 27 25
11 11 10 8 7 8 10 11 15 15 19 24 26 28 30 32 36 34 26 22 29 40 40 43 51 46 15 9 10 30 33 29 33 35 33 30 31 26
6 5 3 1 4 5 7 10 13 19 19 23 27 30 32 30 30 27 27 26 31 27 7 6 2 6 14 9 7 20 27 35 37 36 31 25 21 21
5 2 2 4 5 8 10 12 16 18 17 20 25 26 28 27 24 20 14 17 15 16 22 24 31 21 27 25 14 16 25 31 36 37 33 27 19 16
2 3 4 6 9 10 11 14 16 16 17 20 25 25 14 9 7 10 15 16 15 14 17 21 27 29 26 19 16 25 26 27 31 31 31 31 24 13
3 5 7 10 11 12 12 14 16 17 17 18 16 13 5 3 5 7 5 7 12 18 20 21 24 23 18 19 19 20 24 29 25 22 26 30 15 17

GFSNE_925_spd_048.txt.gz
Wind_Speed
17 16 15 14 13 12 13 10 6 1 2 7 9 11 14 18 20 22 22 22 21 21 21 22 20 19 17 17 15 16 15 14 13 12 10 8 7 5
20 18 18 17 15 14 13 12 12 9 2 4 11 14 14 16 18 23 25 25 25 25 25 25 25 24 22 21 19 17 15 15 15 12 11 9 6 5
23 20 20 18 19 20 19 17 16 14 12 21 19 19 18 20 20 22 24 27 29 29 28 28 28 27 25 24 23 21 18 16 15 13 12 10 7 7
26 25 25 23 23 22 21 22 22 21 21 22 27 26 26 24 23 23 25 27 29 31 31 30 30 29 27 26 27 25 22 19 16 14 14 11 10 10
29 29 29 28 28 28 27 26 26 25 27 29 28 27 31 29 29 29 29 30 31 32 33 33 31 31 31 30 29 27 25 24 20 18 16 14 13 12
33 34 33 33 32 31 31 32 31 30 30 31 29 27 27 34 32 34 34 35 35 34 35 37 35 34 32 31 31 29 26 25 24 20 20 17 14 13
32 34 36 37 36 34 33 34 34 33 29 28 25 22 27 24 27 28 31 33 37 36 38 39 39 40 38 35 34 32 29 26 25 21 21 21 17 14
39 38 37 36 37 37 36 36 37 35 29 25 27 26 31 32 31 30 28 23 19 27 36 42 43 45 44 42 39 34 31 28 26 24 21 24 20 16
39 39 39 40 39 38 39 39 41 41 41 37 34 33 36 32 33 30 29 32 31 32 28 28 31 41 46 47 45 40 35 31 27 26 22 25 23 18
43 44 43 43 41 41 40 41 44 43 42 41 44 49 46 45 36 36 38 36 36 35 33 25 31 33 39 42 45 46 42 34 31 33 28 25 25 22
42 43 45 45 43 40 38 37 42 39 33 38 41 42 41 41 38 37 27 25 29 33 33 32 34 35 35 44 45 46 45 42 36 36 30 30 30 27
38 43 43 44 41 39 38 37 36 34 30 35 36 38 39 41 39 40 44 31 28 20 31 32 37 29 14 36 46 48 44 47 43 39 34 33 35 33
31 30 31 36 38 39 41 40 39 40 35 33 34 33 31 31 34 38 42 44 37 37 38 30 26 27 30 15 29 41 49 50 49 41 36 36 40 39
30 27 28 31 32 31 31 34 37 39 43 34 32 33 32 32 33 34 39 44 47 49 47 40 30 31 32 27 18 26 37 47 44 40 39 38 40 38
35 34 34 31 29 27 28 30 32 37 38 30 29 32 30 31 33 34 39 41 46 53 51 52 45 41 36 36 29 23 32 34 39 42 45 41 45 42
36 38 37 33 32 32 32 32 31 27 23 23 24 26 27 26 30 30 32 36 37 41 37 44 48 49 40 40 41 34 38 19 45 37 41 40 41 41
32 30 29 27 26 21 16 12 11 12 14 16 18 21 23 26 28 29 29 32 32 34 36 32 34 45 54 50 31 35 37 31 39 40 38 34 41 38
18 19 16 14 10 7 7 8 9 10 12 12 13 15 18 21 24 27 27 27 28 30 31 30 28 21 19 10 11 12 13 21 26 36 32 27 30 31
11 9 8 6 6 6 6 6 6 9 12 14 15 16 17 20 23 23 25 26 27 29 29 30 27 21 3 3 10 29 34 30 30 28 34 30 30 33
8 7 6 5 4 3 4 6 9 12 14 12 14 16 18 19 21 20 20 20 21 22 16 11 6 12 10 6 7 8 24 37 31 27 30 24 21 32
8 7 4 2 2 4 7 8 10 12 12 12 14 15 18 14 13 11 13 13 14 12 12 13 11 15 19 20 13 11 18 27 33 37 33 24 15 20
7 5 3 1 2 3 3 5 7 9 10 12 13 14 14 10 5 10 11 11 11 6 7 11 8 5 8 7 13 16 17 23 23 24 29 32 30 12
6 4 5 4 3 1 3 5 7 8 10 11 12 14 12 11 10 12 9 8 4 2 6 7 5 4 5 12 23 20 23 27 27 23 23 18 27 22